TimeCDT,TemperatureF,Dew PointF,Humidity,Sea Level PressureIn,VisibilityMPH,Wind Direction,Wind SpeedMPH,Gust SpeedMPH,PrecipitationIn,Events,Conditions,WindDirDegrees,DateUTC
12:52 AM,70.0,48.0,46,30.04,10.0,East,4.6,-,N/A,,Clear,80,2013-07-02 05:52:00
1:52 AM,68.0,48.0,49,30.04,10.0,East,4.6,-,N/A,,Clear,100,2013-07-02 06:52:00
2:52 AM,66.0,48.0,52,30.05,10.0,ESE,4.6,-,N/A,,Clear,110,2013-07-02 07:52:00
3:52 AM,66.0,46.9,50,30.05,10.0,Calm,Calm,-,N/A,,Clear,0,2013-07-02 08:52:00
4:52 AM,64.9,48.9,56,30.06,10.0,Calm,Calm,-,N/A,,Clear,0,2013-07-02 09:52:00
5:52 AM,64.0,48.9,58,30.08,10.0,Calm,Calm,-,N/A,,Clear,0,2013-07-02 10:52:00
6:52 AM,64.0,50.0,60,30.09,10.0,Calm,Calm,-,N/A,,Clear,0,2013-07-02 11:52:00
7:52 AM,62.1,53.1,72,30.11,10.0,Calm,Calm,-,N/A,,Clear,0,2013-07-02 12:52:00
9:52 AM,73.9,51.1,45,30.12,9.0,Calm,Calm,-,N/A,,Clear,0,2013-07-02 14:52:00
10:52 AM,78.1,50.0,37,30.12,9.0,Calm,Calm,-,N/A,,Clear,0,2013-07-02 15:52:00
11:52 AM,80.1,48.0,32,30.11,10.0,Variable,5.8,-,N/A,,Partly Cloudy,0,2013-07-02 16:52:00
12:52 PM,84.0,46.9,27,30.09,10.0,NE,8.1,-,N/A,,Partly Cloudy,50,2013-07-02 17:52:00
1:52 PM,84.9,46.9,27,30.07,10.0,NNE,5.8,-,N/A,,Clear,20,2013-07-02 18:52:00
2:52 PM,86.0,46.9,26,30.05,10.0,North,10.4,18.4,N/A,,Partly Cloudy,350,2013-07-02 19:52:00
3:52 PM,86.0,45.0,24,30.03,10.0,North,11.5,-,N/A,,Clear,350,2013-07-02 20:52:00
4:52 PM,86.0,44.1,23,30.01,10.0,Variable,4.6,-,N/A,,Clear,0,2013-07-02 21:52:00
5:52 PM,87.1,42.1,21,29.99,10.0,Variable,3.5,-,N/A,,Clear,0,2013-07-02 22:52:00
6:52 PM,87.1,42.1,21,29.98,10.0,North,5.8,-,N/A,,Clear,10,2013-07-02 23:52:00
7:52 PM,84.0,39.9,21,29.99,10.0,NNE,5.8,-,N/A,,Clear,30,2013-07-03 00:52:00
8:52 PM,81.0,41.0,24,30.00,10.0,ENE,5.8,-,N/A,,Clear,60,2013-07-03 01:52:00
9:52 PM,77.0,42.1,29,30.01,10.0,East,4.6,-,N/A,,Clear,80,2013-07-03 02:52:00
10:52 PM,73.9,42.1,32,30.03,10.0,East,6.9,-,N/A,,Clear,90,2013-07-03 03:52:00
11:52 PM,71.1,43.0,36,30.03,10.0,ESE,9.2,-,N/A,,Clear,110,2013-07-03 04:52:00